This demonstration page uses our WeatherBlox Daily Observations layout. Learn more.

Left ArrowRight Arrow

Hourly Observations for August 16, 2022

Temp ( °F °C ) Dew Point ( °F °C ) Humidity (%) Winds ( mph kmh ) Pressure ( in mb ) Visibility ( mi km ) Precip ( " mm )
12:53 am 00:53 Clear 75 23.9 47 8.3 37 37 NE 8 13 29.92 1013 10 16 0.00 0.00
1:53 am 01:53 Clear 73 22.8 47 8.3 39 39 Calm 29.93 1013 10 16 0.00 0.00
2:53 am 02:53 Clear 70 21.1 48 8.9 46 46 E 7 11 29.93 1014 10 16 0.00 0.00
3:53 am 03:53 Clear 64 17.8 50 10 60 60 ENE 7 11 29.94 1014 10 16 0.00 0.00
4:53 am 04:53 Clear 63 17.2 50 10 63 63 ENE 9 15 29.94 1014 10 16 0.00 0.00
5:53 am 05:53 Clear 56 13.3 48 8.9 75 75 WSW 8 13 29.96 1015 10 16 0.00 0.00
6:53 am 06:53 Sunny 58 14.4 47 8.3 67 67 WSW 6 9 29.98 1015 10 16 0.00 0.00
7:53 am 07:53 Sunny 64 17.8 47 8.3 54 54 WSW 6 9 29.98 1015 10 16 0.00 0.00
8:53 am 08:53 Sunny 71 21.7 48 8.9 44 44 W 7 11 29.98 1015 10 16 0.00 0.00
9:53 am 09:53 Sunny 78 25.6 48 8.9 35 35 NNW 7 11 29.98 1015 10 16 0.00 0.00
10:53 am 10:53 Sunny 82 27.8 49 9.4 32 32 WSW 9 15 29.96 1015 10 16 0.00 0.00
11:53 am 11:53 Sunny 86 30 49 9.4 28 28 VRB 6 9 29.96 1014 10 16 0.00 0.00
12:53 pm 12:53 Sunny 91 32.8 49 9.4 24 24 VRB 7 11 29.93 1014 10 16 0.00 0.00
1:53 pm 13:53 Sunny 92 33.3 46 7.8 21 21 Calm 29.91 1013 10 16 0.00 0.00
2:53 pm 14:53 Sunny 96 35.6 42 5.6 16 16 WSW 6 9 29.90 1012 10 16 0.00 0.00
3:53 pm 15:53 Sunny 95 35 41 5 16 16 VRB 3 6 29.88 1012 10 16 0.00 0.00
4:53 pm 16:53 Sunny 97 36.1 33 0.6 11 11 Calm 29.87 1012 10 16 0.00 0.00
5:53 pm 17:53 Sunny 96 35.6 28 -2.2 9 9 W 6 9 29.88 1012 10 16 0.00 0.00
6:53 pm 18:53 Sunny 95 35 29 -1.7 10 10 SW 9 15 29.88 1012 10 16 0.00 0.00
7:53 pm 19:53 Sunny 89 31.7 29 -1.7 12 12 SSW 6 9 29.88 1012 10 16 0.00 0.00
8:53 pm 20:53 Clear 75 23.9 32 0 21 21 S 9 15 29.89 1012 10 16 0.00 0.00
9:53 pm 21:53 Clear 74 23.3 33 0.6 22 22 S 6 9 29.90 1013 10 16 0.00 0.00
10:53 pm 22:53 Clear 70 21.1 33 0.6 25 25 S 3 6 29.91 1013 10 16 0.00 0.00
11:53 pm 23:53 Clear 68 20 34 1.1 28 28 NW 3 6 29.92 1013 10 16 0.00 0.00

Powered by AerisWeather